| time (UTC) | temp F | wind direction | speed MPH | gust MPH | rain 1hr in | rain 24hr in | rain mn in | humidity % | barometer mb |
| 20260504045232 | 47 | 130 | 0.0 | 1.0 | 0.00 | 0.00 | 0.00 | 69 | 1013.0 |
| 20260504044731 | 47 | 147 | 2.0 | 2.0 | 0.00 | 0.00 | 0.00 | 69 | 1014.0 |
| 20260504044231 | 47 | 345 | 1.0 | 2.0 | 0.00 | 0.00 | 0.00 | 70 | 1014.0 |
| 20260504043732 | 47 | 310 | 0.0 | 2.0 | 0.00 | 0.00 | 0.00 | 69 | 1014.0 |
| 20260504043233 | 47 | 242 | 2.0 | 4.0 | 0.00 | 0.00 | 0.00 | 69 | 1014.0 |
| 20260504042731 | 46 | 141 | 0.0 | 2.0 | 0.00 | 0.00 | 0.00 | 70 | 1014.0 |
| 20260504042232 | 47 | 328 | 1.0 | 3.0 | 0.00 | 0.00 | 0.00 | 70 | 1014.0 |
| 20260504041731 | 47 | 163 | 1.0 | 2.0 | 0.00 | 0.00 | 0.00 | 70 | 1014.0 |
| 20260504041232 | 47 | 35 | 1.0 | 2.0 | 0.00 | 0.00 | 0.00 | 70 | 1014.0 |
| 20260504040731 | 47 | 15 | 2.0 | 3.0 | 0.00 | 0.00 | 0.00 | 70 | 1014.0 |
| 20260504040239 | 47 | 357 | 2.0 | 3.0 | 0.00 | 0.00 | 0.00 | 70 | 1014.0 |
| 20260504035732 | 47 | 346 | 2.0 | 2.0 | 0.00 | 0.00 | 0.00 | 70 | 1014.0 |
| 20260504035232 | 47 | 18 | 0.0 | 0.0 | 0.00 | 0.00 | 0.00 | 70 | 1014.0 |
| 20260504034732 | 47 | 0 | 0.0 | 0.0 | 0.00 | 0.00 | 0.00 | 69 | 1014.0 |
| 20260504034231 | 48 | 9 | 0.0 | 0.0 | 0.00 | 0.00 | 0.00 | 69 | 1014.0 |
| 20260504033731 | 48 | 314 | 0.0 | 0.0 | 0.00 | 0.00 | 0.00 | 69 | 1014.0 |
| 20260504033231 | 48 | 348 | 0.0 | 2.0 | 0.00 | 0.00 | 0.00 | 68 | 1014.0 |
| 20260504032733 | 49 | 309 | 0.0 | 1.0 | 0.00 | 0.00 | 0.00 | 68 | 1014.0 |
| 20260504032231 | 49 | 299 | 0.0 | 0.0 | 0.00 | 0.00 | 0.00 | 67 | 1013.0 |
| 20260504031731 | 50 | 0 | 0.0 | 0.0 | 0.00 | 0.00 | 0.00 | 65 | 1013.0 |
| 20260504031232 | 50 | 126 | 0.0 | 1.0 | 0.00 | 0.00 | 0.00 | 64 | 1014.0 |
| 20260504030731 | 51 | 324 | 0.0 | 0.0 | 0.00 | 0.00 | 0.00 | 64 | 1014.0 |
| 20260504030231 | 51 | 275 | 2.0 | 2.0 | 0.00 | 0.00 | 0.00 | 62 | 1014.0 |
| 20260504025731 | 51 | 27 | 1.0 | 2.0 | 0.00 | 0.00 | 0.00 | 59 | 1014.0 |
| 20260504025233 | 52 | 325 | 2.0 | 2.0 | 0.00 | 0.00 | 0.00 | 57 | 1014.0 |
| 20260504024731 | 52 | 228 | 0.0 | 2.0 | 0.00 | 0.00 | 0.00 | 53 | 1014.0 |
| 20260504024232 | 52 | 173 | 0.0 | 2.0 | 0.00 | 0.00 | 0.00 | 54 | 1014.0 |
| 20260504023732 | 52 | 246 | 0.0 | 1.0 | 0.00 | 0.00 | 0.00 | 56 | 1014.0 |
| 20260504023231 | 53 | 164 | 1.0 | 2.0 | 0.00 | 0.00 | 0.00 | 52 | 1014.0 |
| 20260504022732 | 53 | 230 | 0.0 | 0.0 | 0.00 | 0.00 | 0.00 | 53 | 1014.0 |
| 20260504022234 | 53 | 298 | 0.0 | 1.0 | 0.00 | 0.00 | 0.00 | 52 | 1014.0 |
| 20260504021732 | 53 | 0 | 0.0 | 0.0 | 0.00 | 0.00 | 0.00 | 51 | 1014.0 |
| 20260504021232 | 54 | 215 | 2.0 | 3.0 | 0.00 | 0.00 | 0.00 | 51 | 1014.0 |
| 20260504020731 | 54 | 199 | 2.0 | 4.0 | 0.00 | 0.00 | 0.00 | 51 | 1014.0 |
| 20260504020232 | 54 | 183 | 2.0 | 3.0 | 0.00 | 0.00 | 0.00 | 50 | 1014.0 |
| 20260504015731 | 54 | 0 | 0.0 | 0.0 | 0.00 | 0.00 | 0.00 | 49 | 1014.0 |
| 20260504015231 | 54 | 199 | 2.0 | 3.0 | 0.00 | 0.00 | 0.00 | 48 | 1014.0 |
| 20260504014732 | 54 | 204 | 0.0 | 1.0 | 0.00 | 0.00 | 0.00 | 48 | 1014.0 |
| 20260504014231 | 55 | 221 | 2.0 | 3.0 | 0.00 | 0.00 | 0.00 | 48 | 1014.0 |
| 20260504013732 | 55 | 232 | 0.0 | 1.0 | 0.00 | 0.00 | 0.00 | 48 | 1014.0 |
| 20260504013232 | 55 | 320 | 2.0 | 3.0 | 0.00 | 0.00 | 0.00 | 47 | 1014.0 |
| 20260504012732 | 56 | 303 | 1.0 | 2.0 | 0.00 | 0.00 | 0.00 | 47 | 1014.0 |
| 20260504012232 | 56 | 313 | 3.0 | 4.0 | 0.00 | 0.00 | 0.00 | 45 | 1013.0 |
| 20260504011732 | 56 | 298 | 2.0 | 3.0 | 0.00 | 0.00 | 0.00 | 45 | 1013.0 |
| 20260504011232 | 56 | 279 | 2.0 | 3.0 | 0.00 | 0.00 | 0.00 | 43 | 1013.0 |
| 20260504010731 | 56 | 273 | 1.0 | 4.0 | 0.00 | 0.00 | 0.00 | 43 | 1013.0 |
| 20260504010232 | 56 | 261 | 4.0 | 7.0 | 0.00 | 0.00 | 0.00 | 42 | 1013.0 |
| 20260504005731 | 57 | 245 | 1.0 | 3.0 | 0.00 | 0.00 | 0.00 | 42 | 1013.0 |
| 20260504005232 | 57 | 233 | 2.0 | 4.0 | 0.00 | 0.00 | 0.00 | 42 | 1013.0 |
| 20260504004731 | 57 | 263 | 0.0 | 2.0 | 0.00 | 0.00 | 0.00 | 42 | 1013.0 |
| 20260504004231 | 57 | 245 | 2.0 | 5.0 | 0.00 | 0.00 | 0.00 | 41 | 1013.0 |
| 20260504003731 | 57 | 228 | 1.0 | 2.0 | 0.00 | 0.00 | 0.00 | 41 | 1013.0 |
| 20260504003231 | 57 | 240 | 2.0 | 4.0 | 0.00 | 0.00 | 0.00 | 40 | 1013.0 |
| 20260504002731 | 58 | 244 | 4.0 | 7.0 | 0.00 | 0.00 | 0.00 | 39 | 1013.0 |
| 20260504002231 | 58 | 268 | 5.0 | 7.0 | 0.00 | 0.00 | 0.00 | 39 | 1013.0 |
| 20260504001732 | 58 | 251 | 3.0 | 4.0 | 0.00 | 0.00 | 0.00 | 39 | 1013.0 |
| 20260504001231 | 58 | 255 | 5.0 | 9.0 | 0.00 | 0.00 | 0.00 | 38 | 1013.0 |
| 20260504000732 | 58 | 280 | 6.0 | 9.0 | 0.00 | 0.00 | 0.00 | 38 | 1013.0 |
| 20260504000233 | 58 | 280 | 6.0 | 9.0 | 0.00 | 0.00 | 0.00 | 38 | 1013.0 |
| 20260503235731 | 58 | 254 | 6.0 | 8.0 | 0.00 | 0.00 | 0.00 | 37 | 1013.0 |
| 20260503235232 | 58 | 284 | 8.0 | 13.0 | 0.00 | 0.00 | 0.00 | 37 | 1013.0 |
| 20260503234731 | 59 | 283 | 8.0 | 14.0 | 0.00 | 0.00 | 0.00 | 37 | 1013.0 |
| 20260503234231 | 59 | 268 | 6.0 | 9.0 | 0.00 | 0.00 | 0.00 | 37 | 1013.0 |
| 20260503233732 | 59 | 259 | 9.0 | 13.0 | 0.00 | 0.00 | 0.00 | 36 | 1013.0 |
| 20260503233232 | 59 | 275 | 7.0 | 11.0 | 0.00 | 0.00 | 0.00 | 36 | 1013.0 |
| 20260503232731 | 59 | 239 | 5.0 | 8.0 | 0.00 | 0.00 | 0.00 | 36 | 1013.0 |
| 20260503232231 | 59 | 256 | 6.0 | 11.0 | 0.00 | 0.00 | 0.00 | 36 | 1013.0 |
| 20260503231731 | 59 | 267 | 10.0 | 13.0 | 0.00 | 0.00 | 0.00 | 36 | 1013.0 |
| 20260503231231 | 59 | 258 | 8.0 | 13.0 | 0.00 | 0.00 | 0.00 | 36 | 1013.0 |
| 20260503230732 | 59 | 260 | 5.0 | 9.0 | 0.00 | 0.00 | 0.00 | 36 | 1013.0 |
| 20260503225744 | 59 | 250 | 8.0 | 10.0 | 0.00 | 0.00 | 0.00 | 36 | 1013.0 |
| 20260503225231 | 59 | 260 | 7.0 | 11.0 | 0.00 | 0.00 | 0.00 | 36 | 1013.0 |
| 20260503224731 | 60 | 271 | 8.0 | 14.0 | 0.00 | 0.00 | 0.00 | 35 | 1013.0 |
| 20260503224235 | 60 | 259 | 7.0 | 12.0 | 0.00 | 0.00 | 0.00 | 35 | 1013.0 |
| 20260503223731 | 60 | 250 | 7.0 | 14.0 | 0.00 | 0.00 | 0.00 | 35 | 1013.0 |
| 20260503223231 | 60 | 262 | 9.0 | 11.0 | 0.00 | 0.00 | 0.00 | 35 | 1013.0 |
| 20260503222731 | 60 | 257 | 7.0 | 12.0 | 0.00 | 0.00 | 0.00 | 35 | 1013.0 |
| 20260503222231 | 59 | 263 | 7.0 | 10.0 | 0.00 | 0.00 | 0.00 | 35 | 1013.0 |
| 20260503221731 | 59 | 255 | 9.0 | 13.0 | 0.00 | 0.00 | 0.00 | 35 | 1013.0 |
| 20260503221231 | 59 | 266 | 9.0 | 15.0 | 0.00 | 0.00 | 0.00 | 35 | 1013.0 |
| 20260503220732 | 59 | 280 | 11.0 | 19.0 | 0.00 | 0.00 | 0.00 | 35 | 1013.0 |
| 20260503220232 | 59 | 244 | 9.0 | 13.0 | 0.00 | 0.00 | 0.00 | 35 | 1013.0 |
| 20260503215731 | 59 | 275 | 5.0 | 9.0 | 0.00 | 0.00 | 0.00 | 36 | 1013.0 |
| 20260503215231 | 59 | 264 | 7.0 | 9.0 | 0.00 | 0.00 | 0.00 | 36 | 1013.0 |
| 20260503214733 | 59 | 242 | 9.0 | 13.0 | 0.00 | 0.00 | 0.00 | 36 | 1013.0 |
| 20260503214232 | 59 | 254 | 10.0 | 16.0 | 0.00 | 0.00 | 0.00 | 36 | 1013.0 |
| 20260503213731 | 59 | 265 | 9.0 | 12.0 | 0.00 | 0.00 | 0.00 | 36 | 1013.0 |
| 20260503213232 | 59 | 237 | 9.0 | 13.0 | 0.00 | 0.00 | 0.00 | 36 | 1013.0 |
| 20260503212731 | 59 | 284 | 10.0 | 14.0 | 0.00 | 0.00 | 0.00 | 36 | 1013.0 |
| 20260503212231 | 59 | 274 | 9.0 | 13.0 | 0.00 | 0.00 | 0.00 | 36 | 1013.0 |
| 20260503211731 | 59 | 278 | 7.0 | 12.0 | 0.00 | 0.00 | 0.00 | 35 | 1013.0 |
| 20260503211231 | 59 | 271 | 7.0 | 12.0 | 0.00 | 0.00 | 0.00 | 36 | 1013.0 |
| 20260503210731 | 59 | 277 | 11.0 | 18.0 | 0.00 | 0.00 | 0.00 | 35 | 1013.0 |
| 20260503210233 | 59 | 268 | 13.0 | 18.0 | 0.00 | 0.00 | 0.00 | 35 | 1013.0 |
| 20260503205733 | 59 | 263 | 6.0 | 11.0 | 0.00 | 0.00 | 0.00 | 36 | 1013.0 |
| 20260503205231 | 59 | 252 | 8.0 | 11.0 | 0.00 | 0.00 | 0.00 | 35 | 1013.0 |
| 20260503204732 | 59 | 284 | 5.0 | 10.0 | 0.00 | 0.00 | 0.00 | 36 | 1013.0 |
| 20260503204231 | 59 | 261 | 8.0 | 11.0 | 0.00 | 0.00 | 0.00 | 36 | 1014.0 |
| 20260503203731 | 59 | 258 | 4.0 | 9.0 | 0.00 | 0.00 | 0.00 | 37 | 1014.0 |
| 20260503203231 | 59 | 292 | 7.0 | 9.0 | 0.00 | 0.00 | 0.00 | 36 | 1014.0 |
| 20260503202732 | 59 | 284 | 4.0 | 8.0 | 0.00 | 0.00 | 0.00 | 36 | 1014.0 |
| 20260503202231 | 58 | 265 | 7.0 | 12.0 | 0.00 | 0.00 | 0.00 | 36 | 1014.0 |
| 20260503201731 | 58 | 265 | 11.0 | 17.0 | 0.00 | 0.00 | 0.00 | 35 | 1014.0 |
| 20260503201231 | 58 | 247 | 6.0 | 10.0 | 0.00 | 0.00 | 0.00 | 37 | 1014.0 |
| 20260503200731 | 59 | 272 | 9.0 | 12.0 | 0.00 | 0.00 | 0.00 | 37 | 1014.0 |
| 20260503200231 | 59 | 267 | 10.0 | 13.0 | 0.00 | 0.00 | 0.00 | 36 | 1014.0 |
| 20260503195731 | 58 | 264 | 6.0 | 10.0 | 0.00 | 0.00 | 0.00 | 37 | 1014.0 |
| 20260503195231 | 58 | 268 | 8.0 | 13.0 | 0.00 | 0.00 | 0.00 | 37 | 1014.0 |
| 20260503194731 | 58 | 273 | 8.0 | 12.0 | 0.00 | 0.00 | 0.00 | 37 | 1014.0 |
| 20260503194232 | 58 | 260 | 5.0 | 8.0 | 0.00 | 0.00 | 0.00 | 37 | 1014.0 |
| 20260503193731 | 57 | 285 | 7.0 | 11.0 | 0.00 | 0.00 | 0.00 | 38 | 1014.0 |
| 20260503193231 | 58 | 289 | 7.0 | 12.0 | 0.00 | 0.00 | 0.00 | 37 | 1014.0 |
| 20260503192731 | 58 | 285 | 11.0 | 15.0 | 0.00 | 0.00 | 0.00 | 36 | 1014.0 |
| 20260503192231 | 57 | 257 | 7.0 | 12.0 | 0.00 | 0.00 | 0.00 | 37 | 1015.0 |
| 20260503191732 | 58 | 267 | 6.0 | 10.0 | 0.00 | 0.00 | 0.00 | 37 | 1015.0 |
| 20260503191232 | 57 | 324 | 6.0 | 11.0 | 0.00 | 0.00 | 0.00 | 36 | 1015.0 |
| 20260503190731 | 58 | 296 | 7.0 | 10.0 | 0.00 | 0.00 | 0.00 | 38 | 1015.0 |
| 20260503190231 | 58 | 277 | 8.0 | 13.0 | 0.00 | 0.00 | 0.00 | 37 | 1015.0 |
| 20260503185731 | 58 | 315 | 3.0 | 6.0 | 0.00 | 0.00 | 0.00 | 37 | 1015.0 |
| 20260503185231 | 57 | 265 | 7.0 | 9.0 | 0.00 | 0.00 | 0.00 | 36 | 1015.0 |
| 20260503184732 | 57 | 287 | 7.0 | 11.0 | 0.00 | 0.00 | 0.00 | 37 | 1015.0 |
| 20260503184231 | 56 | 251 | 9.0 | 19.0 | 0.00 | 0.00 | 0.00 | 38 | 1015.0 |
| 20260503183732 | 57 | 248 | 6.0 | 9.0 | 0.00 | 0.00 | 0.00 | 39 | 1015.0 |
| 20260503183232 | 56 | 329 | 9.0 | 15.0 | 0.00 | 0.00 | 0.00 | 37 | 1015.0 |
| 20260503182731 | 56 | 321 | 7.0 | 10.0 | 0.00 | 0.00 | 0.00 | 38 | 1015.0 |
| 20260503182231 | 56 | 302 | 9.0 | 12.0 | 0.00 | 0.00 | 0.00 | 38 | 1015.0 |
| 20260503181732 | 56 | 284 | 9.0 | 12.0 | 0.00 | 0.00 | 0.00 | 39 | 1015.0 |
| 20260503181234 | 56 | 326 | 5.0 | 8.0 | 0.00 | 0.00 | 0.00 | 38 | 1015.0 |
| 20260503180731 | 56 | 333 | 7.0 | 12.0 | 0.00 | 0.00 | 0.00 | 38 | 1015.0 |
| 20260503180231 | 55 | 294 | 8.0 | 13.0 | 0.00 | 0.00 | 0.00 | 40 | 1015.0 |
| 20260503175731 | 55 | 277 | 10.0 | 14.0 | 0.00 | 0.00 | 0.00 | 40 | 1016.0 |
| 20260503175231 | 55 | 225 | 6.0 | 10.0 | 0.00 | 0.00 | 0.00 | 39 | 1016.0 |
| 20260503174732 | 56 | 267 | 9.0 | 14.0 | 0.00 | 0.00 | 0.00 | 39 | 1016.0 |
| 20260503174231 | 55 | 307 | 6.0 | 10.0 | 0.00 | 0.00 | 0.00 | 40 | 1016.0 |
| 20260503173732 | 55 | 257 | 5.0 | 9.0 | 0.00 | 0.00 | 0.00 | 40 | 1016.0 |
| 20260503173231 | 55 | 259 | 6.0 | 9.0 | 0.00 | 0.00 | 0.00 | 39 | 1016.0 |
| 20260503172731 | 56 | 279 | 4.0 | 8.0 | 0.00 | 0.00 | 0.00 | 38 | 1016.0 |
| 20260503172231 | 55 | 282 | 9.0 | 13.0 | 0.00 | 0.00 | 0.00 | 38 | 1016.0 |
| 20260503171731 | 55 | 244 | 6.0 | 10.0 | 0.00 | 0.00 | 0.00 | 38 | 1016.0 |
| 20260503171231 | 55 | 245 | 6.0 | 9.0 | 0.00 | 0.00 | 0.00 | 37 | 1016.0 |
| 20260503170731 | 54 | 248 | 6.0 | 8.0 | 0.00 | 0.00 | 0.00 | 39 | 1016.0 |
| 20260503170231 | 54 | 256 | 11.0 | 17.0 | 0.00 | 0.00 | 0.00 | 39 | 1016.0 |
| 20260503150731 | 50 | 266 | 4.0 | 8.0 | 0.00 | 0.00 | 0.00 | 43 | 1017.0 |
| 20260503150231 | 49 | 249 | 8.0 | 12.0 | 0.00 | 0.00 | 0.00 | 44 | 1017.0 |
| 20260503140232 | 46 | 303 | 7.0 | 10.0 | 0.00 | 0.00 | 0.00 | 58 | 1017.0 |
| 20260503131231 | 43 | 284 | 4.0 | 6.0 | 0.00 | 0.00 | 0.00 | 64 | 1018.0 |
| 20260503130731 | 43 | 273 | 5.0 | 7.0 | 0.00 | 0.00 | 0.00 | 65 | 1018.0 |
| 20260503130232 | 42 | 258 | 6.0 | 9.0 | 0.00 | 0.00 | 0.00 | 66 | 1018.0 |
| 20260503110731 | 37 | 297 | 4.0 | 6.0 | 0.00 | 0.00 | 0.00 | 84 | 1017.0 |
| 20260503110231 | 37 | 221 | 0.0 | 2.0 | 0.00 | 0.00 | 0.00 | 86 | 1017.0 |
| 20260503100231 | 36 | 244 | 2.0 | 3.0 | 0.00 | 0.00 | 0.00 | 88 | 1017.0 |
| 20260503090232 | 36 | 256 | 1.0 | 2.0 | 0.00 | 0.00 | 0.00 | 89 | 1017.0 |
| 20260503081232 | 37 | 182 | 1.0 | 1.0 | 0.00 | 0.00 | 0.00 | 84 | 1017.0 |
| 20260503080731 | 38 | 196 | 1.0 | 2.0 | 0.00 | 0.00 | 0.00 | 82 | 1017.0 |
| 20260503080231 | 38 | 261 | 1.0 | 1.0 | 0.00 | 0.00 | 0.00 | 79 | 1017.0 |
| 20260503072731 | 38 | 267 | 4.0 | 6.0 | 0.00 | 0.00 | 0.00 | 76 | 1016.0 |
| 20260503072231 | 38 | 288 | 3.0 | 4.0 | 0.00 | 0.00 | 0.00 | 76 | 1016.0 |
| 20260503071731 | 38 | 262 | 4.0 | 5.0 | 0.00 | 0.00 | 0.00 | 77 | 1016.0 |
| 20260503071231 | 38 | 281 | 3.0 | 4.0 | 0.00 | 0.00 | 0.00 | 79 | 1016.0 |
| 20260503070302 | 38 | 307 | 3.0 | 4.0 | 0.00 | 0.00 | 0.00 | 79 | 1016.0 |
| 20260503060231 | 37 | 0 | 0.0 | 0.0 | 0.00 | 0.00 | 0.00 | 87 | 1017.0 |
| 20260503054732 | 37 | 25 | 0.0 | 0.0 | 0.00 | 0.00 | 0.00 | 88 | 1017.0 |
| 20260503054232 | 37 | 37 | 1.0 | 2.0 | 0.00 | 0.00 | 0.00 | 88 | 1017.0 |
| 20260503053732 | 37 | 324 | 2.0 | 2.0 | 0.00 | 0.00 | 0.00 | 87 | 1017.0 |
| 20260503053231 | 37 | 264 | 0.0 | 0.0 | 0.00 | 0.00 | 0.00 | 87 | 1017.0 |
| 20260503052731 | 37 | 0 | 0.0 | 0.0 | 0.00 | 0.00 | 0.00 | 87 | 1017.0 |
| 20260503052231 | 37 | 0 | 0.0 | 0.0 | 0.00 | 0.00 | 0.00 | 87 | 1017.0 |
| 20260503051731 | 37 | 0 | 0.0 | 0.0 | 0.00 | 0.00 | 0.00 | 87 | 1017.0 |
| 20260503051231 | 37 | 0 | 0.0 | 0.0 | 0.00 | 0.00 | 0.00 | 86 | 1017.0 |
| 20260503050731 | 37 | 202 | 0.0 | 1.0 | 0.00 | 0.00 | 0.00 | 86 | 1017.0 |
| 20260503050231 | 37 | 219 | 0.0 | 0.0 | 0.00 | 0.00 | 0.00 | 86 | 1017.0 |
| 20260503045731 | 38 | 0 | 0.0 | 0.0 | 0.00 | 0.00 | 0.00 | 85 | 1017.0 |